Time,TemperatureF,DewpointF,PressureIn,WindDirection,WindDirectionDegrees,WindSpeedMPH,WindSpeedGustMPH,Humidity,HourlyPrecipIn,Conditions,Clouds,dailyrainin,SoftwareType,DateUTC
2013-10-29 00:00:00,56.7,55.3,30.05,West,270,0.0,-999.0,95,-99.99,,,0.00,Acu-Link.com,2013-10-29 04:00:00,
2013-10-29 00:15:00,55.9,54.8,30.06,ENE,67,0.0,-999.0,96,-99.99,,,0.00,Acu-Link.com,2013-10-29 04:15:00,
2013-10-29 00:31:00,55.0,53.9,30.06,East,90,0.0,-999.0,96,-99.99,,,0.00,Acu-Link.com,2013-10-29 04:31:00,
2013-10-29 00:46:00,54.9,54.3,30.05,NNE,22,0.0,-999.0,98,-99.99,,,0.00,Acu-Link.com,2013-10-29 04:46:00,
2013-10-29 01:01:00,54.3,53.7,30.05,NE,45,0.0,-999.0,98,-99.99,,,0.00,Acu-Link.com,2013-10-29 05:01:00,
2013-10-29 01:16:00,54.3,53.7,30.06,East,90,2.2,-999.0,98,-99.99,,,0.00,Acu-Link.com,2013-10-29 05:16:00,
2013-10-29 01:31:00,54.3,53.7,30.05,East,90,1.7,-999.0,98,-99.99,,,0.00,Acu-Link.com,2013-10-29 05:31:00,
2013-10-29 01:47:00,54.5,53.9,30.05,ENE,67,2.2,-999.0,98,-99.99,,,0.00,Acu-Link.com,2013-10-29 05:47:00,
2013-10-29 02:02:00,54.3,53.7,30.04,East,90,0.0,-999.0,98,-99.99,,,0.00,Acu-Link.com,2013-10-29 06:02:00,
2013-10-29 02:17:00,52.7,52.2,30.04,ENE,67,0.0,-999.0,98,-99.99,,,0.00,Acu-Link.com,2013-10-29 06:17:00,
2013-10-29 02:32:00,52.0,51.5,30.05,WNW,292,0.0,-999.0,98,-99.99,,,0.00,Acu-Link.com,2013-10-29 06:32:00,
2013-10-29 02:47:00,50.9,50.4,30.05,WNW,292,0.0,-999.0,98,-99.99,,,0.00,Acu-Link.com,2013-10-29 06:47:00,
2013-10-29 03:03:00,50.4,49.9,30.06,North,0,0.0,-999.0,98,-99.99,,,0.00,Acu-Link.com,2013-10-29 07:03:00,
2013-10-29 03:18:00,50.2,49.7,30.05,NW,315,0.0,-999.0,98,-99.99,,,0.00,Acu-Link.com,2013-10-29 07:18:00,
2013-10-29 03:33:00,50.2,49.7,30.06,NW,315,0.0,-999.0,98,-99.99,,,0.00,Acu-Link.com,2013-10-29 07:33:00,
2013-10-29 03:48:00,49.8,49.3,30.06,NNW,337,0.0,-999.0,98,-99.99,,,0.00,Acu-Link.com,2013-10-29 07:48:00,
2013-10-29 04:04:00,48.9,48.4,30.06,ENE,67,1.1,-999.0,98,-99.99,,,0.00,Acu-Link.com,2013-10-29 08:04:00,
2013-10-29 04:19:00,49.1,48.6,30.05,ESE,112,0.0,-999.0,98,-99.99,,,0.00,Acu-Link.com,2013-10-29 08:19:00,
2013-10-29 04:34:00,48.9,48.4,30.06,ESE,112,0.0,-999.0,98,-99.99,,,0.00,Acu-Link.com,2013-10-29 08:34:00,
2013-10-29 04:49:00,48.6,48.1,30.07,West,270,0.0,-999.0,98,-99.99,,,0.00,Acu-Link.com,2013-10-29 08:49:00,
2013-10-29 05:04:00,48.0,47.5,30.08,NW,315,0.0,-999.0,98,-99.99,,,0.00,Acu-Link.com,2013-10-29 09:04:00,
2013-10-29 05:20:00,47.7,47.2,30.08,NNW,337,0.0,-999.0,98,-99.99,,,0.00,Acu-Link.com,2013-10-29 09:20:00,
2013-10-29 05:35:00,48.0,47.5,30.08,WNW,292,0.0,-999.0,98,-99.99,,,0.00,Acu-Link.com,2013-10-29 09:35:00,
2013-10-29 05:50:00,48.4,47.9,30.08,West,270,0.0,-999.0,98,-99.99,,,0.00,Acu-Link.com,2013-10-29 09:50:00,
2013-10-29 06:05:00,48.4,47.9,30.09,West,270,0.0,-999.0,98,-99.99,,,0.00,Acu-Link.com,2013-10-29 10:05:00,
2013-10-29 06:21:00,48.4,47.9,30.10,WNW,292,0.0,-999.0,98,-99.99,,,0.00,Acu-Link.com,2013-10-29 10:21:00,
2013-10-29 06:36:00,48.2,47.7,30.10,NW,315,0.0,-999.0,98,-99.99,,,0.00,Acu-Link.com,2013-10-29 10:36:00,
2013-10-29 06:51:00,48.0,47.5,30.11,NNE,22,0.0,-999.0,98,-99.99,,,0.00,Acu-Link.com,2013-10-29 10:51:00,
2013-10-29 07:07:00,48.7,48.2,30.11,West,270,0.0,-999.0,98,-99.99,,,0.00,Acu-Link.com,2013-10-29 11:07:00,
2013-10-29 07:22:00,49.1,48.6,30.11,West,270,0.0,-999.0,98,-99.99,,,0.00,Acu-Link.com,2013-10-29 11:22:00,
2013-10-29 07:37:00,48.2,47.7,30.11,NNW,337,0.0,-999.0,98,-99.99,,,0.00,Acu-Link.com,2013-10-29 11:37:00,
2013-10-29 07:52:00,47.3,46.8,30.11,NNW,337,0.0,-999.0,98,-99.99,,,0.00,Acu-Link.com,2013-10-29 11:52:00,
2013-10-29 08:07:00,46.9,46.4,30.11,SSE,157,0.0,-999.0,98,-99.99,,,0.00,Acu-Link.com,2013-10-29 12:07:00,
2013-10-29 08:22:00,48.7,48.2,30.12,East,90,0.0,-999.0,98,-99.99,,,0.00,Acu-Link.com,2013-10-29 12:22:00,
2013-10-29 08:38:00,50.7,50.2,30.13,WNW,292,0.0,-999.0,98,-99.99,,,0.00,Acu-Link.com,2013-10-29 12:38:00,
2013-10-29 08:53:00,55.4,54.8,30.13,ESE,112,0.0,-999.0,98,-99.99,,,0.00,Acu-Link.com,2013-10-29 12:53:00,
2013-10-29 09:08:00,57.6,57.0,30.14,WNW,292,0.0,-999.0,98,-99.99,,,0.00,Acu-Link.com,2013-10-29 13:08:00,
2013-10-29 09:24:00,60.6,59.2,30.14,WNW,292,0.0,-999.0,95,-99.99,,,0.00,Acu-Link.com,2013-10-29 13:24:00,
2013-10-29 09:39:00,59.4,57.1,30.15,ESE,112,0.0,-999.0,92,-99.99,,,0.00,Acu-Link.com,2013-10-29 13:39:00,
2013-10-29 09:54:00,61.5,58.5,30.15,SSE,157,0.0,-999.0,90,-99.99,,,0.00,Acu-Link.com,2013-10-29 13:54:00,
2013-10-29 10:10:00,63.3,59.4,30.14,ESE,112,0.0,-999.0,87,-99.99,,,0.00,Acu-Link.com,2013-10-29 14:10:00,
2013-10-29 10:25:00,63.7,59.1,30.14,SW,225,1.1,-999.0,85,-99.99,,,0.00,Acu-Link.com,2013-10-29 14:25:00,
2013-10-29 10:40:00,64.6,60.0,30.13,West,270,1.1,-999.0,85,-99.99,,,0.00,Acu-Link.com,2013-10-29 14:40:00,
2013-10-29 10:55:00,67.3,59.1,30.12,West,270,1.7,-999.0,75,-99.99,,,0.00,Acu-Link.com,2013-10-29 14:55:00,
2013-10-29 11:11:00,66.6,59.2,30.13,West,270,2.7,-999.0,77,-99.99,,,0.00,Acu-Link.com,2013-10-29 15:11:00,
2013-10-29 11:26:00,69.1,60.1,30.14,NW,315,1.7,-999.0,73,-99.99,,,0.00,Acu-Link.com,2013-10-29 15:26:00,
2013-10-29 11:41:00,69.8,60.0,30.14,WSW,247,2.2,-999.0,71,-99.99,,,0.00,Acu-Link.com,2013-10-29 15:41:00,
2013-10-29 11:57:00,71.2,60.1,30.13,NNE,22,1.7,-999.0,68,-99.99,,,0.00,Acu-Link.com,2013-10-29 15:57:00,
2013-10-29 12:12:00,70.3,58.4,30.13,NNE,22,0.0,-999.0,66,-99.99,,,0.00,Acu-Link.com,2013-10-29 16:12:00,
2013-10-29 12:27:00,70.7,58.8,30.12,ESE,112,1.7,-999.0,66,-99.99,,,0.00,Acu-Link.com,2013-10-29 16:27:00,
2013-10-29 12:43:00,73.2,59.8,30.11,East,90,4.2,-999.0,63,-99.99,,,0.00,Acu-Link.com,2013-10-29 16:43:00,
2013-10-29 12:58:00,74.8,60.4,30.10,NNE,22,3.7,-999.0,61,-99.99,,,0.00,Acu-Link.com,2013-10-29 16:58:00,
2013-10-29 13:13:00,73.9,58.2,30.09,SE,135,2.2,-999.0,58,-99.99,,,0.00,Acu-Link.com,2013-10-29 17:13:00,
2013-10-29 13:28:00,73.4,57.7,30.09,West,270,1.1,-999.0,58,-99.99,,,0.00,Acu-Link.com,2013-10-29 17:28:00,
2013-10-29 13:43:00,76.1,58.2,30.08,ESE,112,4.2,-999.0,54,-99.99,,,0.00,Acu-Link.com,2013-10-29 17:43:00,
2013-10-29 13:58:00,73.8,57.1,30.08,WNW,292,2.2,-999.0,56,-99.99,,,0.00,Acu-Link.com,2013-10-29 17:58:00,
2013-10-29 14:14:00,76.1,59.2,30.06,East,90,5.3,-999.0,56,-99.99,,,0.00,Acu-Link.com,2013-10-29 18:14:00,
2013-10-29 14:29:00,73.6,58.4,30.06,West,270,2.7,-999.0,59,-99.99,,,0.00,Acu-Link.com,2013-10-29 18:29:00,
2013-10-29 14:44:00,74.1,58.8,30.06,SSW,202,2.2,-999.0,59,-99.99,,,0.00,Acu-Link.com,2013-10-29 18:44:00,
2013-10-29 14:59:00,71.8,57.2,30.05,NNE,22,2.2,-999.0,60,-99.99,,,0.00,Acu-Link.com,2013-10-29 18:59:00,
2013-10-29 15:15:00,72.7,58.5,30.05,ESE,112,1.7,-999.0,61,-99.99,,,0.00,Acu-Link.com,2013-10-29 19:15:00,
2013-10-29 15:30:00,72.0,57.3,30.04,SE,135,2.2,-999.0,60,-99.99,,,0.00,Acu-Link.com,2013-10-29 19:30:00,
2013-10-29 15:45:00,75.0,60.2,30.04,East,90,6.3,-999.0,60,-99.99,,,0.00,Acu-Link.com,2013-10-29 19:45:00,
2013-10-29 16:01:00,74.7,59.4,30.04,SE,135,1.7,-999.0,59,-99.99,,,0.00,Acu-Link.com,2013-10-29 20:01:00,
2013-10-29 16:16:00,75.2,58.4,30.04,West,270,1.7,-999.0,56,-99.99,,,0.00,Acu-Link.com,2013-10-29 20:16:00,
2013-10-29 16:31:00,74.8,58.5,30.04,West,270,3.2,-999.0,57,-99.99,,,0.00,Acu-Link.com,2013-10-29 20:31:00,
2013-10-29 16:46:00,73.6,57.9,30.04,NW,315,3.2,-999.0,58,-99.99,,,0.00,Acu-Link.com,2013-10-29 20:46:00,
2013-10-29 17:01:00,71.6,56.5,30.04,WNW,292,4.2,-999.0,59,-99.99,,,0.00,Acu-Link.com,2013-10-29 21:01:00,
2013-10-29 17:17:00,70.7,57.0,30.04,West,270,2.2,-999.0,62,-99.99,,,0.00,Acu-Link.com,2013-10-29 21:17:00,
2013-10-29 17:32:00,71.8,57.2,30.04,NNW,337,3.2,-999.0,60,-99.99,,,0.00,Acu-Link.com,2013-10-29 21:32:00,
2013-10-29 17:47:00,68.9,57.1,30.05,West,270,1.7,-999.0,66,-99.99,,,0.00,Acu-Link.com,2013-10-29 21:47:00,
2013-10-29 18:02:00,70.2,57.9,30.05,West,270,0.0,-999.0,65,-99.99,,,0.00,Acu-Link.com,2013-10-29 22:02:00,
2013-10-29 18:18:00,69.4,57.5,30.05,West,270,0.0,-999.0,66,-99.99,,,0.00,Acu-Link.com,2013-10-29 22:18:00,
2013-10-29 18:33:00,67.6,57.5,30.05,West,270,0.0,-999.0,70,-99.99,,,0.00,Acu-Link.com,2013-10-29 22:33:00,
2013-10-29 18:48:00,66.2,57.7,30.06,ENE,67,0.0,-999.0,74,-99.99,,,0.00,Acu-Link.com,2013-10-29 22:48:00,
2013-10-29 19:04:00,65.1,57.0,30.07,ENE,67,0.0,-999.0,75,-99.99,,,0.00,Acu-Link.com,2013-10-29 23:04:00,
2013-10-29 19:19:00,64.4,57.0,30.07,ENE,67,0.0,-999.0,77,-99.99,,,0.00,Acu-Link.com,2013-10-29 23:19:00,
2013-10-29 19:35:00,62.6,56.7,30.07,ENE,67,0.0,-999.0,81,-99.99,,,0.00,Acu-Link.com,2013-10-29 23:35:00,
2013-10-29 19:50:00,62.4,56.5,30.07,ENE,67,0.0,-999.0,81,-99.99,,,0.00,Acu-Link.com,2013-10-29 23:50:00,
2013-10-29 20:05:00,61.3,56.4,30.07,ENE,67,2.2,-999.0,84,-99.99,,,0.00,Acu-Link.com,2013-10-30 00:05:00,
2013-10-29 20:20:00,60.6,56.7,30.08,ENE,67,0.0,-999.0,87,-99.99,,,0.00,Acu-Link.com,2013-10-30 00:20:00,
2013-10-29 20:36:00,59.5,55.9,30.08,NNE,22,0.0,-999.0,88,-99.99,,,0.00,Acu-Link.com,2013-10-30 00:36:00,
2013-10-29 20:51:00,59.0,55.4,30.08,NNE,22,0.0,-999.0,88,-99.99,,,0.00,Acu-Link.com,2013-10-30 00:51:00,
2013-10-29 21:06:00,58.5,55.3,30.08,NNE,22,0.0,-999.0,89,-99.99,,,0.00,Acu-Link.com,2013-10-30 01:06:00,
2013-10-29 21:22:00,57.4,55.1,30.08,NNE,22,0.0,-999.0,92,-99.99,,,0.00,Acu-Link.com,2013-10-30 01:22:00,
2013-10-29 21:37:00,57.4,55.4,30.09,NNE,22,0.0,-999.0,93,-99.99,,,0.00,Acu-Link.com,2013-10-30 01:37:00,
2013-10-29 21:52:00,56.8,54.8,30.09,NNE,22,0.0,-999.0,93,-99.99,,,0.00,Acu-Link.com,2013-10-30 01:52:00,
2013-10-29 22:07:00,56.5,54.8,30.08,NNE,22,0.0,-999.0,94,-99.99,,,0.00,Acu-Link.com,2013-10-30 02:07:00,
2013-10-29 22:23:00,55.6,53.9,30.09,NNE,22,0.0,-999.0,94,-99.99,,,0.00,Acu-Link.com,2013-10-30 02:23:00,
2013-10-29 22:38:00,54.9,54.1,30.09,NNW,337,0.0,-999.0,97,-99.99,,,0.00,Acu-Link.com,2013-10-30 02:38:00,
2013-10-29 22:53:00,54.5,53.7,30.09,NNW,337,0.0,-999.0,97,-99.99,,,0.00,Acu-Link.com,2013-10-30 02:53:00,
2013-10-29 23:08:00,54.5,53.9,30.08,ENE,67,2.2,-999.0,98,-99.99,,,0.00,Acu-Link.com,2013-10-30 03:08:00,
2013-10-29 23:24:00,54.3,53.7,30.09,WNW,292,0.0,-999.0,98,-99.99,,,0.00,Acu-Link.com,2013-10-30 03:24:00,
2013-10-29 23:39:00,54.1,53.5,30.09,West,270,0.0,-999.0,98,-99.99,,,0.00,Acu-Link.com,2013-10-30 03:39:00,
2013-10-29 23:54:00,54.1,53.5,30.09,West,270,0.0,-999.0,98,-99.99,,,0.00,Acu-Link.com,2013-10-30 03:54:00,